Flag for Germany Weather past 2 weeks in Nuremberg, Bavaria, Germany

Now
66 °F

Scattered clouds.


Feels Like: 66 °F
Forecast: 53 / 68 °F
Wind: 5 mph from North

Location: Nuernberg

Current Time: Sep 2, 2015 at 1:30:18 PM

Latest Report: Sep 2, 2015 at 12:50 PM


Visibility: N/A

Pressure: 30.04 "Hg

Humidity: 56%

Dew point: 50 °F

Location of NurembergLocation

Historic Weather in Nuremberg — Graph

°F

Nuremberg temperature yesterday

Maximum temperature yesterday: 86 °F (at 12:20 PM)
Minimum temperature yesterday: 61 °F (at 8:50 PM)
Average temperature yesterday: 70 °F

Past Weeks' High & Low Weather Summary

 TemperatureHumidityPressure
High93 °F (Aug 30, 3:50 PM)100% (Aug 19, 1:20 AM)30.27 "Hg (Aug 19, 1:20 AM)
Low46 °F (Aug 22, 5:50 AM)26% (Aug 26, 3:20 PM)29.71 "Hg (Aug 24, 3:20 PM)
Average67 °F66%30.03 "Hg
* Reported Aug 18 12:20 PM — Sep 2 12:20 PM, Nuremberg, Weather by CustomWeather, © 2015

Note: Actual official high and low records may vary slightly from our data, if they occured in-between our weather recording intervals... More about our weather records

Advertising

Nuremberg weather history for previous 24 hours

 ConditionsComfort  
Time TempWeatherWind HumidityBarometerVisibility
12:20 PM
Wed, Sep 2
64 °FScattered clouds.3 mph60%30.04 "HgN/A
11:50 AM63 °FScattered clouds.3 mph64%30.07 "HgN/A
11:20 AM63 °FScattered clouds.5 mph64%30.07 "HgN/A
10:50 AM61 °FScattered clouds.3 mph72%30.07 "HgN/A
10:20 AM61 °FScattered clouds.5 mph72%30.07 "HgN/A
9:50 AM59 °FScattered clouds.3 mph77%30.07 "HgN/A
9:20 AM59 °FScattered clouds.3 mph77%30.07 "HgN/A
8:50 AM57 °FScattered clouds.3 mph88%30.07 "HgN/A
8:20 AM57 °FScattered clouds.2 mph82%30.07 "HgN/A
7:50 AM55 °FFog.1 mph88%30.07 "HgN/A
7:20 AM54 °FFog.1 mph94%30.07 "HgN/A
6:50 AM54 °FFog.1 mph94%30.07 "HgN/A
6:20 AM54 °FPassing clouds.2 mph94%30.07 "HgN/A
5:50 AM55 °FPassing clouds.3 mph94%30.07 "HgN/A
5:20 AM55 °FFog.2 mph94%30.07 "HgN/A
4:50 AM57 °FFog.3 mph88%30.07 "HgN/A
4:20 AM57 °FPassing clouds.3 mph94%30.07 "HgN/A
3:50 AM59 °FPassing clouds.1 mph88%30.04 "HgN/A
3:20 AM59 °FPartly cloudy.2 mph88%30.04 "HgN/A
2:50 AM59 °FPassing clouds.3 mph88%30.04 "HgN/A
2:20 AM59 °FPartly cloudy.5 mph94%30.04 "HgN/A
1:50 AM59 °FPartly cloudy.3 mph94%30.04 "HgN/A
1:20 AM59 °FPassing clouds.3 mph94%30.04 "HgN/A
12:50 AM59 °FLight rain. Passing clouds.5 mph94%30.04 "HgN/A
11:20 PM
Tue, Sep 1
61 °FPartly cloudy.6 mph88%30.01 "HgN/A
10:50 PM61 °FPartly cloudy.7 mph94%30.01 "HgN/A
10:20 PM61 °FPassing clouds.7 mph94%29.98 "HgN/A
9:50 PM61 °FPartly cloudy.3 mph94%29.98 "HgN/A
9:20 PM61 °FLight rain. Passing clouds.7 mph94%29.98 "HgN/A
8:50 PM61 °FLight rain. Broken clouds.8 mph94%29.95 "HgN/A
8:20 PM63 °FLight rain. Broken clouds.10 mph88%29.95 "HgN/A
7:50 PM63 °FLight rain. Broken clouds.9 mph88%29.92 "HgN/A
7:20 PM63 °FBroken clouds.10 mph94%29.89 "HgN/A
6:50 PM64 °FRain showers. Broken clouds.20 mph88%29.89 "Hg3 mi
6:20 PM70 °FBroken clouds.2 mph83%29.86 "HgN/A
5:50 PM72 °FPartly sunny.1 mph73%29.86 "HgN/A
5:20 PM70 °FPassing clouds.3 mph78%29.83 "HgN/A
4:50 PM70 °FPartly sunny.3 mph78%29.83 "HgN/A
4:20 PM68 °FBroken clouds.7 mph83%29.83 "HgN/A
3:50 PM73 °FSunny.18 mph57%29.86 "Hg10 mi
3:20 PM77 °FSunny.29 mph47%29.83 "Hg10 mi
2:50 PM81 °FPassing clouds.20 mph39%29.83 "HgN/A
2:20 PM82 °FPassing clouds.17 mph37%29.83 "HgN/A
1:50 PM82 °FPassing clouds.17 mph35%29.80 "HgN/A
1:20 PM86 °FPassing clouds.12 mph33%29.80 "HgN/A
Weather by CustomWeather, © 2015

See weather overviewHow to use our weather pages